Home   Weather   Radom   Past weeks

Flag for Poland Past Weather in Radom, Poland — Yesterday and Last 2 Weeks

42 °F

Drizzle. Low clouds.

Feels Like: 42 °F
Forecast: 37 / 51 °F
Wind: 2 mph from West

Location: Kielce

Current Time: Oct 22, 2016 at 6:09:35 PM

Latest Report: Oct 22, 2016 at 5:00 PM

Visibility: 1 mi

Pressure: 30.04 "Hg

Humidity: 96%

Dew Point: 41 °F

Location of RadomLocation

Past Weather in Radom — Graph


Radom Temperature Yesterday

Maximum temperature yesterday: 47 °F (at 3:00 PM)
Minimum temperature yesterday: 43 °F (at 5:00 AM)
Average temperature yesterday: 44 °F

High & Low Weather Summary for the Past Weeks

High51 °F (Oct 9, 4:00 PM)100% (Oct 8, 10:00 PM)30.46 "Hg (Oct 8, 10:00 PM)
Low29 °F (Oct 14, 5:00 AM)60% (Oct 7, 4:00 PM)29.96 "Hg (Oct 21, 4:00 PM)
Average43 °F89%30.16 "Hg
* Reported Oct 7 4:00 PM — Oct 22 4:00 PM, Radom, Weather by CustomWeather, © 2016

Note: Actual official high and low records may vary slightly from our data, if they occured in-between our weather recording intervals... More about our weather records


Radom Weather History for the Previous 24 Hours

Scroll right to see more
Time TempWeatherWind HumidityBarometerVisibility
4:00 PM
Sat, Oct 22
42 °FFog.2 mph96%30.03 "Hg1 mi
3:00 PM42 °FFog.3 mph100%30.02 "Hg1 mi
2:00 PM44 °FFog.5 mph95%30.00 "Hg2 mi
1:00 PM45 °FFog.2 mph94%30.00 "Hg2 mi
12:00 PM45 °FFog.2 mph99%29.99 "Hg1 mi
11:00 AM44 °FDrizzle. Low clouds.2 mph100%29.99 "Hg1 mi
10:00 AM45 °FFog.2 mph100%29.98 "Hg0 mi
9:00 AM44 °FDrizzle. Low clouds.1 mph100%29.98 "Hg1 mi
8:00 AM44 °FLight rain. Dense fog.1 mph100%29.96 "Hg0 mi
7:00 AM43 °FLight rain. Low clouds.No wind100%29.96 "Hg1 mi
6:00 AM43 °FLight rain. Low clouds.No wind99%29.96 "Hg1 mi
5:00 AM43 °FLight rain. Low clouds.1 mph100%29.97 "Hg0 mi
4:00 AM43 °FDrizzle. Low clouds.No wind100%29.97 "Hg0 mi
3:00 AM43 °FDrizzle. Low clouds.2 mph100%29.97 "Hg0 mi
2:00 AM43 °FLight rain. Dense fog.1 mph100%29.98 "Hg0 mi
1:00 AM44 °FDrizzle. Dense fog.2 mph100%29.98 "Hg0 mi
12:00 AM44 °FDrizzle. Low clouds.2 mph100%29.98 "Hg0 mi
11:00 PM
Fri, Oct 21
44 °FDrizzle. Low clouds.3 mph100%29.98 "Hg1 mi
10:00 PM44 °FFog.5 mph98%29.98 "Hg1 mi
9:00 PM44 °FLow clouds.3 mph98%29.97 "Hg2 mi
8:00 PM44 °FLight rain. Low clouds.3 mph98%29.96 "Hg2 mi
7:00 PM44 °FLight rain. Low clouds.3 mph97%29.96 "Hg1 mi
6:00 PM45 °FRain. Low clouds.5 mph97%29.96 "Hg2 mi
Weather by CustomWeather, © 2016

See weather overviewHow to use our weather pages